User: anonymous   Login
Location: Unspecified
(34.4500°N, 0.0000°E)
Time: 06:36:23
(UTC+00:00)
Language:

Oscar 11 - Orbit

View from above orbital plane
View from above orbital plane
View from above satellite
View from above satellite

Ground track
Ground track

The orbit data is extracted from the following two-line orbital elements,

1 14781U 84021B   21134.79944040  .00000105  00000-0  18938-4 0  9993
2 14781  97.5928 136.2987 0008262 181.7769 178.3418 14.83282219  1942
Epoch (UTC): 14 May 2021 19:11:11
Eccentricity: 0.0008262
inclination: 97.5928°
perigee height: 613 km
apogee height: 625 km
right ascension of ascending node: 136.2987°
argument of perigee: 181.7769°
revolutions per day: 14.83282219
mean anomaly at epoch: 178.3418°
orbit number at epoch: 194

The dashed part of the orbit path shows where the satellite is in the earth's shadow,  

DLR